Weather in Borok

Russia / Udmurt Republic     56°26′00″N   53°53′50″E
temp.,
°C
wind,
m/s
gust,
m/s
humid.,
%
clouds,
%
prec.,
mm/h
press.,
hPa
HPBL,
m
13 may, thu
thu1301:00+16se11542 0.0 102711
04:00+15e11579 0.0 102710
07:00+19se12485 0.0 1027138
10:00+25sse23350 0.0 1026999
13:00+27ssw45250 0.0 10262171
16:00+27ssw45275 0.0 10252140
19:00+23s22440 0.0 102534
22:00+18sse22545 0.0 102515
14 may, fri
fri1401:00+16se22615 0.0 102537
04:00+15sse23645 0.0 102550
07:00+19sse37505 0.0 1025220
10:00+25s4736100 0.0 1024774
13:00+28ssw58284 0.0 10231531
16:00+29ssw69285 0.0 10221955
19:00+25sw384516 0.0 1021245
22:00+19ssw246071 0.0 102274
15 may, sat
sat1501:00+18ssw211593 0.0 1022222
04:00+16ssw246327 0.0 102266
07:00+20ssw375288 0.0 1022260
10:00+25sw463580 0.0 1022705
13:00+28sw5727100 0.0 10211306
16:00+29sw4728100 0.0 10211460
19:00+24sw254746 0.0 1020113
22:00+19ssw225537 0.0 102028
16 may, sun
sun1601:00+18ssw225976 0.0 102032
04:00+16s22595 0.0 102028
07:00+21ssw36485 0.0 1021213
10:00+27ssw47345 0.0 1020777
13:00+30sw58265 0.0 10192816
16:00+30wsw58265 0.0 10183142
19:00+25sw264314 0.0 1017157
22:00+20ssw245035 0.0 101755
17 may, mon
mon1701:00+18ssw2459100 0.0 101772
04:00+16sw3106825 0.0 1017189
07:00+20w385830 0.0 1018278
10:00+26wsw474354 0.0 10171186
13:00+28w59359 0.0 10172317
16:00+28w58315 0.0 10172911
19:00+25nw36467 0.0 1017245
22:00+18nne226239 0.0 101933